Flag for Norway Weather past 2 weeks in Molde, Norway

Now
48 °F

Scattered clouds.


Feels Like: 43 °F
Forecast: 51 / 58 °F
Wind: 12 mph from East

Location: Molde / Aro

Current Time: Aug 1, 2015 at 8:19:05 AM

Latest Report: Aug 1, 2015 at 7:50 AM


Visibility: N/A

Pressure: 29.92 "Hg

Humidity: 87%

Dew point: 45 °F

Location of MoldeLocation

Historic Weather in Molde — Graph

°F

Molde temperature yesterday

Maximum temperature yesterday: 57 °F (at 2:50 PM)
Minimum temperature yesterday: 46 °F (at 4:20 AM)
Average temperature yesterday: 52 °F

Past Weeks' High & Low Weather Summary

 TemperatureHumidityPressure
High66 °F (Jul 28, 3:20 PM)100% (Jul 19, 4:20 AM)30.09 "Hg (Jul 19, 4:20 AM)
Low41 °F (Aug 1, 4:50 AM)45% (Jul 17, 1:20 PM)29.45 "Hg (Jul 18, 4:50 PM)
Average55 °F79%29.67 "Hg
* Reported Jul 17 6:20 AM — Aug 1 6:50 AM, Molde, Weather by CustomWeather, © 2015

Note: Actual official high and low records may vary slightly from our data, if they occured in-between our weather recording intervals... More about our weather records

Advertising

Molde weather history for previous 24 hours

 ConditionsComfort  
Time TempWeatherWind HumidityBarometerVisibility
6:50 AM
Sat, Aug 1
48 °FScattered clouds.9 mph82%29.92 "HgN/A
6:20 AM46 °FPassing clouds.6 mph93%29.92 "HgN/A
5:50 AM43 °FPassing clouds.8 mph93%29.95 "HgN/A
4:50 AM41 °FQuite cool.8 mph93%29.95 "HgN/A
4:20 AM43 °FQuite cool.8 mph93%29.95 "HgN/A
3:50 AM45 °FQuite cool.9 mph87%29.95 "HgN/A
3:20 AM45 °FQuite cool.9 mph87%29.95 "HgN/A
2:50 AM46 °FPassing clouds.9 mph82%29.95 "HgN/A
2:20 AM48 °FOvercast.8 mph82%29.95 "HgN/A
1:50 AM50 °FOvercast.7 mph76%29.95 "HgN/A
1:20 AM50 °FOvercast.3 mph76%29.95 "HgN/A
12:50 AM50 °FPassing clouds.3 mph71%29.95 "HgN/A
12:20 AM50 °FPartly cloudy.3 mph71%29.92 "HgN/A
11:50 PM
Fri, Jul 31
50 °FPassing clouds.7 mph71%29.92 "HgN/A
11:20 PM50 °FScattered clouds.8 mph71%29.92 "HgN/A
10:50 PM52 °FScattered clouds.8 mph67%29.92 "HgN/A
10:20 PM52 °FScattered clouds.9 mph67%29.92 "HgN/A
9:50 PM52 °FScattered showers. Broken clouds.12 mph72%29.92 "HgN/A
9:20 PM52 °FScattered showers. Scattered clouds.13 mph72%29.92 "HgN/A
8:50 PM52 °FSprinkles. Scattered clouds.16 mph72%29.89 "HgN/A
8:20 PM52 °FScattered clouds.13 mph77%29.89 "HgN/A
7:50 PM54 °FScattered clouds.17 mph72%29.89 "HgN/A
7:20 PM55 °FScattered clouds.15 mph67%29.89 "HgN/A
6:50 PM55 °FScattered clouds.16 mph67%29.89 "HgN/A
6:20 PM55 °FScattered clouds.16 mph67%29.89 "HgN/A
5:50 PM55 °FScattered clouds.17 mph67%29.89 "HgN/A
5:20 PM57 °FScattered clouds.15 mph67%29.89 "HgN/A
4:50 PM55 °FScattered clouds.16 mph67%29.89 "HgN/A
4:20 PM57 °FPartly sunny.13 mph63%29.86 "HgN/A
3:50 PM57 °FBroken clouds.21 mph63%29.86 "HgN/A
3:20 PM57 °FScattered showers. Broken clouds.20 mph63%29.86 "HgN/A
2:50 PM57 °FPartly sunny.16 mph63%29.86 "HgN/A
2:20 PM55 °FBroken clouds.15 mph72%29.86 "HgN/A
1:50 PM55 °FScattered showers. Broken clouds.18 mph72%29.86 "HgN/A
1:20 PM54 °FScattered showers. Broken clouds.13 mph77%29.83 "HgN/A
12:50 PM54 °FBroken clouds.16 mph72%29.83 "HgN/A
12:20 PM52 °FBroken clouds.15 mph82%29.83 "HgN/A
11:50 AM52 °FSprinkles. Broken clouds.16 mph82%29.83 "HgN/A
11:20 AM52 °FScattered showers. Broken clouds.14 mph82%29.83 "HgN/A
10:50 AM52 °FSprinkles. Broken clouds.20 mph82%29.83 "HgN/A
10:20 AM52 °FScattered showers. Broken clouds.17 mph82%29.83 "HgN/A
9:20 AM50 °FDrizzle. Broken clouds.9 mph88%29.80 "HgN/A
8:50 AM50 °FRain showers. Broken clouds.12 mph88%29.80 "HgN/A
8:20 AM50 °FSprinkles. Broken clouds.14 mph88%29.80 "HgN/A
Weather by CustomWeather, © 2015

See weather overviewHow to use our weather pages